Location: Molalla
(45.1473°N, 122.5770°W)
Time: 01:38:10
(UTC-08:00)

A-11 Canister half - All Passes

Search period start: 13 November 2019 00:00
Search period end: 23 November 2019 00:00
Orbit: 1514 x 1686 km, 47.2° (Epoch: 12 November)

Date Brightness Start Highest point End Pass type
(mag) Time Alt. Az. Time Alt. Az. Time Alt. Az.
13 Nov - 00:45:28 10° WNW 00:55:34 76° SSW 01:05:21 10° ESE night (unlit)
13 Nov - 02:51:09 10° WNW 02:59:31 32° SW 03:07:39 10° S visible
13 Nov - 18:08:41 10° SSW 18:17:37 37° SE 18:26:36 10° ENE visible
13 Nov - 20:11:40 10° WSW 20:21:52 81° SSE 20:32:01 10° ENE visible
13 Nov - 22:17:01 10° W 22:27:17 80° N 22:37:21 10° E visible
14 Nov - 00:22:29 10° WNW 00:32:38 78° SSW 00:42:27 10° ESE night (unlit)
14 Nov - 02:28:06 10° WNW 02:36:41 34° SW 02:45:01 10° SSE visible
14 Nov - 17:46:00 10° SSW 17:54:44 35° SE 18:03:34 10° ENE visible
14 Nov - 19:48:44 10° WSW 19:58:54 79° SSE 20:09:03 10° ENE visible
14 Nov - 21:54:02 10° W 22:04:18 80° N 22:14:23 10° E visible
14 Nov - 23:59:30 10° WNW 00:09:41 80° SSW 00:19:34 10° ESE night (unlit)
15 Nov - 02:05:03 10° WNW 02:13:50 36° SW 02:22:21 10° SSE night (unlit)
15 Nov - 17:23:19 10° SSW 17:31:53 33° SE 17:40:32 10° ENE visible
15 Nov - 19:25:50 10° WSW 19:35:57 76° SSE 19:46:07 10° ENE visible
15 Nov - 21:31:03 10° W 21:41:18 80° N 21:51:25 10° E visible
15 Nov - 23:36:32 10° WNW 23:46:44 82° SSW 23:56:40 10° ESE visible
16 Nov - 01:42:01 10° WNW 01:50:58 38° SW 01:59:40 10° SSE night (unlit)
16 Nov - 17:00:40 10° S 17:09:01 31° SE 17:17:29 10° ENE visible
16 Nov - 19:02:55 10° SW 19:13:00 74° SSE 19:23:08 10° ENE visible
16 Nov - 21:08:03 10° W 21:18:19 80° N 21:28:27 10° E visible
16 Nov - 23:13:33 10° WNW 23:23:47 84° SSW 23:33:45 10° ESE visible
17 Nov - 01:18:59 10° WNW 01:28:06 40° SW 01:36:58 10° SSE night (unlit)
17 Nov - 16:38:01 10° S 16:46:10 29° SE 16:54:24 10° ENE daylight
17 Nov - 18:40:01 10° SW 18:50:04 72° SSE 19:00:11 10° ENE visible
17 Nov - 20:45:04 10° W 20:55:19 80° N 21:05:29 10° E visible
17 Nov - 22:50:35 10° WNW 23:00:50 86° SSW 23:10:50 10° ESE visible
18 Nov - 00:55:59 10° WNW 01:05:14 43° SW 01:14:14 10° SSE night (unlit)
18 Nov - 03:06:02 10° WSW 03:08:03 11° WSW 03:10:03 10° SW night (unlit)
18 Nov - 16:15:26 10° S 16:23:20 27° SE 16:31:20 10° ENE daylight
18 Nov - 18:17:08 10° SW 18:27:07 69° SSE 18:37:13 10° ENE visible
18 Nov - 20:22:04 10° W 20:32:19 81° N 20:42:31 10° E visible
18 Nov - 22:27:35 10° WNW 22:37:51 88° SSW 22:47:54 10° ESE visible
19 Nov - 00:32:58 10° WNW 00:42:21 45° SW 00:51:31 10° SSE night (unlit)
19 Nov - 02:41:54 10° W 02:45:15 12° WSW 02:48:36 10° SW night (unlit)
19 Nov - 15:52:51 10° S 16:00:30 26° SE 16:08:13 10° E daylight
19 Nov - 17:54:15 10° SW 18:04:11 67° SSE 18:14:15 10° ENE visible
19 Nov - 19:59:06 10° W 20:09:20 81° N 20:19:33 10° E visible
19 Nov - 22:04:37 10° WNW 22:14:53 90° SW 22:24:58 10° ESE visible
20 Nov - 00:09:58 10° WNW 00:19:29 48° SW 00:28:44 10° SSE night (unlit)
20 Nov - 02:18:12 10° W 02:22:28 14° WSW 02:26:41 10° SSW night (unlit)
20 Nov - 15:30:19 10° S 15:37:39 24° SE 15:45:05 10° E daylight
20 Nov - 17:31:24 10° SW 17:41:16 64° SSE 17:51:17 10° ENE visible
20 Nov - 19:36:08 10° W 19:46:21 82° N 19:56:34 10° E visible
20 Nov - 21:41:39 10° WNW 21:51:55 89° NNE 22:02:01 10° ESE visible
20 Nov - 23:46:58 10° WNW 23:56:35 50° SW 00:05:58 10° SSE visible
21 Nov - 01:54:42 10° W 01:59:40 15° WSW 02:04:35 10° SSW night (unlit)
21 Nov - 15:07:49 10° S 15:14:49 22° SE 15:21:56 10° E daylight
21 Nov - 17:08:33 10° SW 17:18:20 62° SSE 17:28:18 10° ENE visible
21 Nov - 19:13:09 10° W 19:23:21 83° N 19:33:36 10° E visible
21 Nov - 21:18:41 10° WNW 21:28:56 87° NNE 21:39:04 10° ESE visible
21 Nov - 23:23:58 10° WNW 23:33:41 53° SW 23:43:11 10° SE visible
22 Nov - 01:31:19 10° W 01:36:52 16° WSW 01:42:22 10° SSW night (unlit)
22 Nov - 14:45:21 10° S 14:52:00 21° SE 14:58:44 10° E daylight
22 Nov - 16:45:42 10° SW 16:55:26 59° SE 17:05:20 10° ENE visible
22 Nov - 18:50:11 10° W 19:00:22 84° NNW 19:10:38 10° ENE visible
22 Nov - 20:55:42 10° WNW 21:05:58 86° NNE 21:16:07 10° ESE visible
22 Nov - 23:01:00 10° WNW 23:10:47 55° SW 23:20:23 10° SE visible
